Time,TemperatureF,DewpointF,PressureIn,WindDirection,WindDirectionDegrees,WindSpeedMPH,WindSpeedGustMPH,Humidity,HourlyPrecipIn,Conditions,Clouds,dailyrainin,SolarRadiationWatts/m^2,SoftwareType,DateUTC
2013-12-27 00:14:00,50.0,31.0,30.21,SSW,204,0.0,0.0,49,0.00,,,0.00,0,weatherlink.com 1.10,2013-12-27 08:14:00,
2013-12-27 00:29:00,49.6,33.0,30.21,SSW,204,0.0,0.0,53,0.00,,,0.00,0,weatherlink.com 1.10,2013-12-27 08:29:00,
2013-12-27 00:44:00,49.2,33.0,30.21,SSW,204,0.0,0.0,54,0.00,,,0.00,0,weatherlink.com 1.10,2013-12-27 08:44:00,
2013-12-27 00:59:00,48.9,33.0,30.22,SSW,204,0.0,0.0,55,0.00,,,0.00,0,weatherlink.com 1.10,2013-12-27 08:59:00,
2013-12-27 01:14:00,48.7,34.0,30.22,SSW,204,0.0,0.0,57,0.00,,,0.00,0,weatherlink.com 1.10,2013-12-27 09:14:00,
2013-12-27 01:29:00,48.6,34.0,30.22,SSW,204,0.0,0.0,57,0.00,,,0.00,0,weatherlink.com 1.10,2013-12-27 09:29:00,
2013-12-27 01:44:00,48.3,34.0,30.22,SSW,204,0.0,0.0,58,0.00,,,0.00,0,weatherlink.com 1.10,2013-12-27 09:44:00,
2013-12-27 01:59:00,47.9,34.0,30.23,SSW,204,0.0,0.0,58,0.00,,,0.00,0,weatherlink.com 1.10,2013-12-27 09:59:00,
2013-12-27 02:14:00,47.6,34.0,30.23,SSW,204,0.0,0.0,59,0.00,,,0.00,0,weatherlink.com 1.10,2013-12-27 10:14:00,
2013-12-27 02:29:00,47.2,34.0,30.23,SSW,204,0.0,0.0,60,0.00,,,0.00,0,weatherlink.com 1.10,2013-12-27 10:29:00,
2013-12-27 02:44:00,46.7,34.0,30.23,SSW,204,0.0,0.0,62,0.00,,,0.00,0,weatherlink.com 1.10,2013-12-27 10:44:00,
2013-12-27 02:59:00,46.4,35.0,30.23,SSW,204,0.0,0.0,64,0.00,,,0.00,0,weatherlink.com 1.10,2013-12-27 10:59:00,
2013-12-27 03:14:00,46.1,35.0,30.22,SSW,204,0.0,0.0,65,0.00,,,0.00,0,weatherlink.com 1.10,2013-12-27 11:14:00,
2013-12-27 03:29:00,45.7,35.0,30.23,SSW,204,0.0,0.0,66,0.00,,,0.00,0,weatherlink.com 1.10,2013-12-27 11:29:00,
2013-12-27 03:44:00,45.3,34.0,30.23,SSW,204,0.0,0.0,66,0.00,,,0.00,0,weatherlink.com 1.10,2013-12-27 11:44:00,
2013-12-27 03:59:00,44.9,34.0,30.22,SSW,204,0.0,0.0,67,0.00,,,0.00,0,weatherlink.com 1.10,2013-12-27 11:59:00,
2013-12-27 04:14:00,44.6,35.0,30.22,SSW,204,0.0,0.0,69,0.00,,,0.00,0,weatherlink.com 1.10,2013-12-27 12:14:00,
2013-12-27 04:29:00,44.5,36.0,30.21,SSW,204,0.0,1.0,71,0.00,,,0.00,0,weatherlink.com 1.10,2013-12-27 12:29:00,
2013-12-27 04:44:00,44.3,35.0,30.21,SSW,204,0.0,0.0,71,0.00,,,0.00,0,weatherlink.com 1.10,2013-12-27 12:44:00,
2013-12-27 04:59:00,44.2,36.0,30.21,SSW,204,0.0,0.0,72,0.00,,,0.00,0,weatherlink.com 1.10,2013-12-27 12:59:00,
2013-12-27 05:14:00,44.0,35.0,30.21,SSW,204,0.0,0.0,72,0.00,,,0.00,0,weatherlink.com 1.10,2013-12-27 13:14:00,
2013-12-27 05:29:00,43.8,36.0,30.21,SSW,204,0.0,0.0,73,0.00,,,0.00,0,weatherlink.com 1.10,2013-12-27 13:29:00,
2013-12-27 05:44:00,43.9,36.0,30.21,SSW,204,0.0,0.0,74,0.00,,,0.00,0,weatherlink.com 1.10,2013-12-27 13:44:00,
2013-12-27 05:59:00,44.0,37.0,30.21,SSW,204,0.0,0.0,75,0.00,,,0.00,0,weatherlink.com 1.10,2013-12-27 13:59:00,
2013-12-27 06:14:00,43.9,36.0,30.21,SSW,204,0.0,0.0,75,0.00,,,0.00,0,weatherlink.com 1.10,2013-12-27 14:14:00,
2013-12-27 06:29:00,43.8,37.0,30.21,SSW,204,0.0,0.0,77,0.00,,,0.00,0,weatherlink.com 1.10,2013-12-27 14:29:00,
2013-12-27 06:44:00,43.9,38.0,30.21,SSW,204,0.0,0.0,79,0.00,,,0.00,0,weatherlink.com 1.10,2013-12-27 14:44:00,
2013-12-27 06:59:00,43.9,38.0,30.21,SSW,204,0.0,0.0,79,0.00,,,0.00,0,weatherlink.com 1.10,2013-12-27 14:59:00,
2013-12-27 07:14:00,44.0,38.0,30.21,SSW,204,0.0,1.0,80,0.00,,,0.00,0,weatherlink.com 1.10,2013-12-27 15:14:00,
2013-12-27 07:29:00,44.0,38.0,30.21,SSW,204,0.0,1.0,80,0.00,,,0.00,5,weatherlink.com 1.10,2013-12-27 15:29:00,
2013-12-27 07:45:00,44.1,39.0,30.22,SSW,204,0.0,2.0,81,0.00,,,0.00,30,weatherlink.com 1.10,2013-12-27 15:45:00,
2013-12-27 08:00:00,44.3,39.0,30.22,SSW,204,0.0,0.0,82,0.00,,,0.00,35,weatherlink.com 1.10,2013-12-27 16:00:00,
2013-12-27 08:15:00,44.6,39.0,30.23,SSW,204,0.0,0.0,81,0.00,,,0.00,44,weatherlink.com 1.10,2013-12-27 16:15:00,
2013-12-27 08:30:00,44.7,39.0,30.23,SSW,204,0.0,0.0,81,0.00,,,0.00,46,weatherlink.com 1.10,2013-12-27 16:30:00,
2013-12-27 08:45:00,44.9,39.0,30.23,SSW,204,0.0,0.0,81,0.00,,,0.00,54,weatherlink.com 1.10,2013-12-27 16:45:00,
2013-12-27 08:54:00,45.0,39.5,30.24,SSW,204,0.0,0.0,81,0.00,,,0.00,67,Wunderground v.1.15,2013-12-27 16:54:00,
2013-12-27 08:59:00,45.1,39.6,30.24,SSW,204,0.0,0.0,81,0.00,,,0.00,74,Wunderground v.1.15,2013-12-27 16:59:00,
2013-12-27 09:04:00,45.3,39.8,30.24,SSW,204,0.0,0.0,81,0.00,,,0.00,72,Wunderground v.1.15,2013-12-27 17:04:00,
2013-12-27 09:09:00,45.4,39.9,30.24,SSW,204,0.0,0.0,81,0.00,,,0.00,74,Wunderground v.1.15,2013-12-27 17:09:00,
2013-12-27 09:15:00,45.6,40.1,30.24,SSW,204,0.0,0.0,81,0.00,,,0.00,65,Wunderground v.1.15,2013-12-27 17:15:00,
2013-12-27 09:20:00,45.8,40.3,30.24,SSW,204,0.0,0.0,81,0.00,,,0.00,77,Wunderground v.1.15,2013-12-27 17:20:00,
2013-12-27 09:26:00,46.0,40.2,30.24,SSW,204,0.0,0.0,80,0.00,,,0.00,84,Wunderground v.1.15,2013-12-27 17:26:00,
2013-12-27 09:31:00,46.3,40.5,30.24,SSW,204,0.0,0.0,80,0.00,,,0.00,90,Wunderground v.1.15,2013-12-27 17:31:00,
2013-12-27 09:37:00,46.6,40.8,30.24,SSW,204,0.0,0.0,80,0.00,,,0.00,93,Wunderground v.1.15,2013-12-27 17:37:00,
2013-12-27 09:42:00,47.0,41.1,30.24,SSW,204,0.0,0.0,80,0.00,,,0.00,83,Wunderground v.1.15,2013-12-27 17:42:00,
2013-12-27 09:47:00,47.3,41.4,30.24,SSW,204,0.0,0.0,80,0.00,,,0.00,121,Wunderground v.1.15,2013-12-27 17:47:00,
2013-12-27 09:52:00,47.7,41.5,30.23,SSW,204,0.0,0.0,79,0.00,,,0.00,120,Wunderground v.1.15,2013-12-27 17:52:00,
2013-12-27 09:58:00,48.1,41.9,30.23,SSW,204,0.0,0.0,79,0.00,,,0.00,116,Wunderground v.1.15,2013-12-27 17:58:00,
2013-12-27 10:16:00,49.6,42.0,30.23,SSW,204,0.0,1.0,76,0.00,,,0.00,77,weatherlink.com 1.10,2013-12-27 18:16:00,
2013-12-27 10:31:00,50.6,42.0,30.24,SSW,204,0.0,0.0,73,0.00,,,0.00,95,weatherlink.com 1.10,2013-12-27 18:31:00,
2013-12-27 10:46:00,51.6,43.0,30.23,SSW,204,0.0,1.0,72,0.00,,,0.00,95,weatherlink.com 1.10,2013-12-27 18:46:00,
2013-12-27 11:01:00,52.7,42.0,30.23,SSW,204,0.0,1.0,68,0.00,,,0.00,128,weatherlink.com 1.10,2013-12-27 19:01:00,
2013-12-27 11:16:00,53.9,43.0,30.22,South,184,0.0,2.0,67,0.00,,,0.00,186,weatherlink.com 1.10,2013-12-27 19:16:00,
2013-12-27 11:31:00,54.8,43.0,30.21,SE,146,0.0,1.0,64,0.00,,,0.00,148,weatherlink.com 1.10,2013-12-27 19:31:00,
2013-12-27 11:46:00,55.4,43.0,30.21,SE,145,0.0,1.0,63,0.00,,,0.00,253,weatherlink.com 1.10,2013-12-27 19:46:00,
2013-12-27 12:01:00,55.8,43.0,30.20,SE,146,0.0,1.0,63,0.00,,,0.00,204,weatherlink.com 1.10,2013-12-27 20:01:00,
2013-12-27 12:17:00,56.5,43.0,30.20,SSE,155,0.0,2.0,61,0.00,,,0.00,130,weatherlink.com 1.10,2013-12-27 20:17:00,
2013-12-27 12:32:00,57.2,43.0,30.19,SE,140,0.0,1.0,59,0.00,,,0.00,111,weatherlink.com 1.10,2013-12-27 20:32:00,
2013-12-27 12:47:00,57.6,43.0,30.19,SSE,155,0.0,2.0,58,0.00,,,0.00,121,weatherlink.com 1.10,2013-12-27 20:47:00,
2013-12-27 13:02:00,58.1,42.0,30.18,SE,143,0.0,2.0,56,0.00,,,0.00,120,weatherlink.com 1.10,2013-12-27 21:02:00,
2013-12-27 13:17:00,58.6,42.0,30.18,SE,134,1.0,1.0,55,0.00,,,0.00,135,weatherlink.com 1.10,2013-12-27 21:17:00,
2013-12-27 13:32:00,58.9,42.0,30.17,SE,134,0.0,2.0,54,0.00,,,0.00,137,weatherlink.com 1.10,2013-12-27 21:32:00,
2013-12-27 13:47:00,59.2,42.0,30.17,SE,134,0.0,1.0,54,0.00,,,0.00,118,weatherlink.com 1.10,2013-12-27 21:47:00,
2013-12-27 14:02:00,59.3,42.0,30.16,SE,136,0.0,1.0,54,0.00,,,0.00,107,weatherlink.com 1.10,2013-12-27 22:02:00,
2013-12-27 14:17:00,59.3,42.0,30.16,SE,133,0.0,1.0,53,0.00,,,0.00,97,weatherlink.com 1.10,2013-12-27 22:17:00,
2013-12-27 14:32:00,59.0,40.0,30.15,SE,144,1.0,3.0,50,0.00,,,0.00,81,weatherlink.com 1.10,2013-12-27 22:32:00,
2013-12-27 14:47:00,58.6,40.0,30.15,SSE,151,0.0,1.0,50,0.00,,,0.00,67,weatherlink.com 1.10,2013-12-27 22:47:00,
2013-12-27 15:02:00,58.2,40.0,30.16,SSE,151,0.0,1.0,51,0.00,,,0.00,58,weatherlink.com 1.10,2013-12-27 23:02:00,
2013-12-27 15:17:00,57.8,40.0,30.14,SSE,151,0.0,0.0,52,0.00,,,0.00,51,weatherlink.com 1.10,2013-12-27 23:17:00,
2013-12-27 15:32:00,57.5,40.0,30.15,SSE,151,0.0,0.0,53,0.00,,,0.00,47,weatherlink.com 1.10,2013-12-27 23:32:00,
2013-12-27 15:47:00,57.1,40.0,30.14,SSE,151,0.0,0.0,54,0.00,,,0.00,33,weatherlink.com 1.10,2013-12-27 23:47:00,
2013-12-27 16:02:00,56.7,40.0,30.14,SSE,151,0.0,0.0,54,0.00,,,0.00,30,weatherlink.com 1.10,2013-12-28 00:02:00,
2013-12-27 16:17:00,56.2,40.0,30.14,SSE,151,0.0,0.0,55,0.00,,,0.00,16,weatherlink.com 1.10,2013-12-28 00:17:00,
2013-12-27 16:32:00,55.7,40.0,30.14,SSE,151,0.0,0.0,56,0.00,,,0.00,7,weatherlink.com 1.10,2013-12-28 00:32:00,
2013-12-27 16:47:00,55.1,40.0,30.14,SSE,151,0.0,0.0,57,0.00,,,0.00,0,weatherlink.com 1.10,2013-12-28 00:47:00,
2013-12-27 17:17:00,54.1,40.0,30.15,West,280,0.0,1.0,59,0.00,,,0.00,0,weatherlink.com 1.10,2013-12-28 01:17:00,
2013-12-27 17:32:00,53.7,39.0,30.14,West,280,0.0,0.0,57,0.00,,,0.00,0,weatherlink.com 1.10,2013-12-28 01:32:00,
2013-12-27 17:47:00,53.4,40.0,30.15,West,280,0.0,2.0,60,0.00,,,0.00,0,weatherlink.com 1.10,2013-12-28 01:47:00,
2013-12-27 18:02:00,52.8,39.0,30.16,West,280,0.0,1.0,61,0.00,,,0.00,0,weatherlink.com 1.10,2013-12-28 02:02:00,
2013-12-27 18:17:00,52.3,39.0,30.16,West,280,0.0,1.0,61,0.00,,,0.00,0,weatherlink.com 1.10,2013-12-28 02:17:00,
2013-12-27 18:32:00,51.7,39.0,30.17,West,280,0.0,2.0,62,0.00,,,0.00,0,weatherlink.com 1.10,2013-12-28 02:32:00,
2013-12-27 18:47:00,51.2,39.0,30.16,West,280,0.0,2.0,63,0.00,,,0.00,0,weatherlink.com 1.10,2013-12-28 02:47:00,
2013-12-27 19:02:00,50.5,39.0,30.17,West,280,0.0,1.0,64,0.00,,,0.00,0,weatherlink.com 1.10,2013-12-28 03:02:00,
2013-12-27 19:17:00,50.2,39.0,30.16,West,280,0.0,1.0,65,0.00,,,0.00,0,weatherlink.com 1.10,2013-12-28 03:17:00,
2013-12-27 19:32:00,49.6,38.0,30.16,West,280,0.0,2.0,65,0.00,,,0.00,0,weatherlink.com 1.10,2013-12-28 03:32:00,
2013-12-27 19:47:00,49.2,38.0,30.16,West,280,0.0,2.0,66,0.00,,,0.00,0,weatherlink.com 1.10,2013-12-28 03:47:00,
2013-12-27 20:02:00,49.0,38.0,30.16,West,280,0.0,1.0,65,0.00,,,0.00,0,weatherlink.com 1.10,2013-12-28 04:02:00,
2013-12-27 20:17:00,49.3,37.0,30.16,West,280,0.0,1.0,63,0.00,,,0.00,0,weatherlink.com 1.10,2013-12-28 04:17:00,
2013-12-27 20:32:00,49.4,36.0,30.16,West,280,0.0,1.0,61,0.00,,,0.00,0,weatherlink.com 1.10,2013-12-28 04:32:00,
2013-12-27 20:47:00,49.4,36.0,30.15,West,280,1.0,2.0,61,0.00,,,0.00,0,weatherlink.com 1.10,2013-12-28 04:47:00,
2013-12-27 21:02:00,49.2,36.0,30.15,West,280,0.0,1.0,60,0.00,,,0.00,0,weatherlink.com 1.10,2013-12-28 05:02:00,
2013-12-27 21:17:00,48.8,36.0,30.15,West,280,0.0,2.0,62,0.00,,,0.00,0,weatherlink.com 1.10,2013-12-28 05:17:00,
2013-12-27 21:32:00,47.9,36.0,30.15,West,280,0.0,1.0,63,0.00,,,0.00,0,weatherlink.com 1.10,2013-12-28 05:32:00,
2013-12-27 21:47:00,47.5,35.0,30.14,West,280,0.0,0.0,63,0.00,,,0.00,0,weatherlink.com 1.10,2013-12-28 05:47:00,
2013-12-27 22:02:00,47.0,36.0,30.14,West,280,0.0,1.0,65,0.00,,,0.00,0,weatherlink.com 1.10,2013-12-28 06:02:00,
2013-12-27 22:17:00,47.2,36.0,30.14,West,280,0.0,1.0,65,0.00,,,0.00,0,weatherlink.com 1.10,2013-12-28 06:17:00,
2013-12-27 22:32:00,47.4,36.0,30.14,West,280,0.0,1.0,65,0.00,,,0.00,0,weatherlink.com 1.10,2013-12-28 06:32:00,
2013-12-27 22:47:00,47.3,36.0,30.13,West,280,0.0,1.0,65,0.00,,,0.00,0,weatherlink.com 1.10,2013-12-28 06:47:00,
2013-12-27 23:02:00,46.9,36.0,30.13,West,280,1.0,2.0,66,0.00,,,0.00,0,weatherlink.com 1.10,2013-12-28 07:02:00,
2013-12-27 23:17:00,46.0,36.0,30.13,West,280,2.0,3.0,67,0.00,,,0.00,0,weatherlink.com 1.10,2013-12-28 07:17:00,
2013-12-27 23:32:00,45.5,36.0,30.13,West,280,3.0,4.0,69,0.00,,,0.00,0,weatherlink.com 1.10,2013-12-28 07:32:00,
2013-12-27 23:47:00,43.7,35.0,30.12,West,279,2.0,3.0,71,0.00,,,0.00,0,weatherlink.com 1.10,2013-12-28 07:47:00,